Chattanooga, TN

8:24 PM EDT on May 26, 2017 (GMT -0400)
Lovell

Weather History for KCHA - March, 2014

Change the Weather History Date:

Thursday, March 13, 2014

  Actual Average Record
Temperature  
Mean Temperature 43 °F 51 °F  
Max Temperature 54 °F 63 °F 83 °F (1967)
Min Temperature 32 °F 40 °F 20 °F (1932)
Degree Days  
Heating Degree Days 22 14  
Month to date heating degree days 183 200  
Since 1 July heating degree days 2977 2822  
Cooling Degree Days 0 0  
Month to date cooling degree days 0 0  
Year to date cooling degree days 0 0  
Moisture  
Dew Point 18 °F    
Average Humidity 41    
Maximum Humidity 64    
Minimum Humidity 17    
Precipitation  
Precipitation 0.00 in 0.17 in 2.92 in (1975)
Month to date precipitation 0.34 2.10  
Year to date precipitation 7.93 11.85  
Snow  
Snow 0.00 in 0.00 in - ()
Month to date snowfall 0.0 0.6  
Since 1 July snowfall 8.4 3.2  
Snow Depth 0.00 in    
Sea Level Pressure  
Sea Level Pressure 30.17 in    
Wind  
Wind Speed 8 mph (NNW)    
Max Wind Speed 20 mph    
Max Gust Speed 25 mph    
Visibility 10 miles    
Events      
T = Trace of Precipitation, MM = Missing Value Source: NWS Daily Summary

Daily Weather History Graph

Daily Weather History Graph

Search for Another Location

Airport or City:

Trip Planner

Search our weather history database for the weather conditions in past years. The results will help you decide how hot, cold, wet, or windy it might be!

Date:

Astronomy

Mar. 13, 2014 Rise Set
Actual Time 7:54 AM EDT 7:46 PM EDT
Civil Twilight 7:28 AM EDT 8:12 PM EDT
Nautical Twilight 6:59 AM EDT 8:41 PM EDT
Astronomical Twilight 6:30 AM EDT 9:10 PM EDT
Moon 5:16 PM EDT (3/13) 5:55 AM EDT (3/13)
Length of Visible Light 12h 43m
Length of Day
11h 52m
Waxing Gibbous, 91% of the Moon is Illuminated
Mar 13
Waxing Gibbous
Mar 16
Full
Mar 23
Last Quarter
Mar 30
New
Apr 7
First Quarter

Hourly Weather History & Observations

Time (EDT) Temp. Windchill Dew Point Humidity Pressure Visibility Wind Dir Wind Speed Gust Speed Precip Events Conditions
12:53 AM 39.0 °F 31.0 °F 23.0 °F 53% 30.05 in 10.0 mi NNW 13.8 mph 28.8 mph N/A   Scattered Clouds
1:53 AM 37.9 °F 30.0 °F 21.9 °F 53% 30.06 in 10.0 mi NNW 12.7 mph - N/A   Clear
2:53 AM 37.0 °F 28.5 °F 23.0 °F 57% 30.06 in 10.0 mi NW 13.8 mph 19.6 mph N/A   Mostly Cloudy
3:53 AM 37.0 °F 29.3 °F 21.0 °F 52% 30.07 in 10.0 mi NNW 11.5 mph 23.0 mph N/A   Scattered Clouds
4:53 AM 35.1 °F 25.5 °F 19.0 °F 52% 30.08 in 10.0 mi NW 15.0 mph - N/A   Clear
5:53 AM 34.0 °F 26.0 °F 21.0 °F 59% 30.09 in 10.0 mi NW 10.4 mph - N/A   Scattered Clouds
6:53 AM 32.0 °F 24.8 °F 21.0 °F 64% 30.12 in 10.0 mi NW 8.1 mph - N/A   Scattered Clouds
7:53 AM 33.1 °F 24.4 °F 21.0 °F 61% 30.15 in 10.0 mi NNW 11.5 mph - N/A   Scattered Clouds
8:53 AM 34.0 °F 25.5 °F 19.9 °F 56% 30.18 in 10.0 mi NNW 11.5 mph - N/A   Scattered Clouds
9:53 AM 37.0 °F 28.5 °F 21.0 °F 52% 30.22 in 10.0 mi NW 13.8 mph - N/A   Scattered Clouds
10:53 AM 39.0 °F 31.8 °F 19.9 °F 46% 30.24 in 10.0 mi NNW 11.5 mph - N/A   Scattered Clouds
11:53 AM 42.1 °F 35.7 °F 18.0 °F 38% 30.25 in 10.0 mi NNW 11.5 mph - N/A   Partly Cloudy
12:53 PM 44.1 °F 37.1 °F 15.1 °F 31% 30.22 in 10.0 mi North 15.0 mph - N/A   Clear
1:53 PM 46.0 °F 41.9 °F 12.9 °F 26% 30.22 in 10.0 mi NNE 8.1 mph - N/A   Clear
2:53 PM 50.0 °F - 12.0 °F 22% 30.19 in 10.0 mi NNW 13.8 mph 18.4 mph N/A   Clear
3:53 PM 52.0 °F - 12.0 °F 20% 30.18 in 10.0 mi NNE 10.4 mph 16.1 mph N/A   Clear
4:53 PM 52.0 °F - 10.0 °F 19% 30.18 in 10.0 mi Calm Calm - N/A   Clear
5:53 PM 53.1 °F - 10.0 °F 18% 30.19 in 10.0 mi Variable 3.5 mph - N/A   Clear
6:53 PM 52.0 °F - 9.0 °F 18% 30.20 in 10.0 mi NNW 6.9 mph - N/A   Clear
7:53 PM 48.2 °F - 12.2 °F 24% 30.22 in 10.0 mi North 5.8 mph - N/A   Partly Cloudy
8:53 PM 45.0 °F - 15.1 °F 30% 30.23 in 10.0 mi Calm Calm - N/A   Clear
9:53 PM 43.0 °F - 21.0 °F 42% 30.25 in 10.0 mi Calm Calm - N/A   Clear
10:53 PM 39.9 °F - 24.1 °F 53% 30.25 in 10.0 mi Calm Calm - N/A   Clear
11:53 PM 37.0 °F 34.5 °F 27.0 °F 67% 30.26 in 10.0 mi SW 3.5 mph - N/A   Clear